Wetterdaten: Sonntag, 12.06.2005
Datum Zeit Temp. A Sch. Temp. A Son. Feuchte A. Luftdruck Regen Wind Richtung Richtung Sonnenschein Helligkeit Taupunkt Windchill
12.06.2005 00:00 7,3 C 8,8 C 74 % 1012 hPa 0,0 l/m 0,0 m/s (0 Bft) SW 235 0,00 min 0 lux 3,0 C 7,3 C
12.06.2005 00:05 7,2 C 8,7 C 75 % 1012 hPa 0,0 l/m 0,0 m/s (0 Bft) W22.5 270 0,00 min 0 lux 3,1 C 7,2 C
12.06.2005 00:10 6,8 C 8,5 C 77 % 1012 hPa 0,0 l/m 0,0 m/s (0 Bft) W 270 0,00 min 0 lux 3,1 C 6,8 C
12.06.2005 00:15 6,7 C 8,3 C 78 % 1012 hPa 0,0 l/m 0,0 m/s (0 Bft) W 270 0,00 min 0 lux 3,1 C 6,7 C
12.06.2005 00:20 6,5 C 8,1 C 80 % 1012 hPa 0,0 l/m 0,0 m/s (0 Bft) W 270 0,00 min 0 lux 3,3 C 6,5 C
12.06.2005 00:25 6,5 C 8,0 C 80 % 1012 hPa 0,0 l/m 0,0 m/s (0 Bft) W-NW 285 0,00 min 0 lux 3,3 C 6,5 C
12.06.2005 00:30 6,5 C 7,8 C 80 % 1012 hPa 0,0 l/m 0,0 m/s (0 Bft) NW 315 0,00 min 0 lux 3,3 C 6,5 C
12.06.2005 00:35 6,0 C 7,6 C 81 % 1012 hPa 0,0 l/m 0,0 m/s (0 Bft) NW 315 0,00 min 0 lux 3,0 C 6,0 C
12.06.2005 00:40 5,8 C 7,5 C 83 % 1012 hPa 0,0 l/m 0,0 m/s (0 Bft) NW 315 0,00 min 0 lux 3,1 C 5,8 C
12.06.2005 00:45 5,7 C 7,4 C 84 % 1012 hPa 0,0 l/m 0,0 m/s (0 Bft) NW 315 0,00 min 0 lux 3,2 C 5,7 C
12.06.2005 00:50 5,6 C 7,3 C 84 % 1012 hPa 0,0 l/m 0,0 m/s (0 Bft) NW45 305 0,00 min 0 lux 3,1 C 5,6 C
12.06.2005 00:55 5,5 C 7,0 C 85 % 1012 hPa 0,0 l/m 0,0 m/s (0 Bft) W-SW 240 0,00 min 0 lux 3,2 C 5,5 C
12.06.2005 01:00 5,3 C 6,9 C 85 % 1012 hPa 0,0 l/m 0,0 m/s (0 Bft) W-SW 245 0,00 min 0 lux 3,0 C 5,3 C
12.06.2005 01:05 5,3 C 6,7 C 85 % 1012 hPa 0,0 l/m 0,0 m/s (0 Bft) W-SW 245 0,00 min 0 lux 3,0 C 5,3 C
12.06.2005 01:10 5,1 C 6,6 C 86 % 1012 hPa 0,0 l/m 0,0 m/s (0 Bft) W-NW22.5 285 0,00 min 0 lux 3,0 C 5,1 C
12.06.2005 01:15 5,0 C 6,5 C 86 % 1012 hPa 0,0 l/m 0,0 m/s (0 Bft) W-NW 290 0,00 min 0 lux 2,9 C 5,0 C
12.06.2005 01:20 4,9 C 6,4 C 87 % 1012 hPa 0,0 l/m 0,0 m/s (0 Bft) W-NW 295 0,00 min 0 lux 2,9 C 4,9 C
12.06.2005 01:25 4,8 C 6,3 C 88 % 1012 hPa 0,0 l/m 0,0 m/s (0 Bft) W-NW 290 0,00 min 0 lux 3,0 C 4,8 C
12.06.2005 01:30 5,0 C 6,2 C 87 % 1012 hPa 0,0 l/m 0,0 m/s (0 Bft) W-NW 290 0,00 min 0 lux 3,0 C 5,0 C
12.06.2005 01:35 4,6 C 6,1 C 88 % 1012 hPa 0,0 l/m 0,0 m/s (0 Bft) W-NW 290 0,00 min 0 lux 2,8 C 4,6 C
12.06.2005 01:40 4,5 C 5,9 C 88 % 1012 hPa 0,0 l/m 0,0 m/s (0 Bft) W-NW 290 0,00 min 0 lux 2,7 C 4,5 C
12.06.2005 01:45 4,6 C 5,8 C 89 % 1012 hPa 0,0 l/m 0,0 m/s (0 Bft) W-NW 290 0,00 min 0 lux 2,9 C 4,6 C
12.06.2005 01:50 4,8 C 5,7 C 90 % 1012 hPa 0,0 l/m 0,0 m/s (0 Bft) W-NW 290 0,00 min 0 lux 3,3 C 4,8 C
12.06.2005 01:55 4,6 C 5,6 C 90 % 1012 hPa 0,0 l/m 0,0 m/s (0 Bft) W-NW 290 0,00 min 0 lux 3,1 C 4,6 C
12.06.2005 02:00 4,3 C 5,5 C 90 % 1012 hPa 0,0 l/m 0,0 m/s (0 Bft) W-NW 290 0,00 min 0 lux 2,8 C 4,3 C
12.06.2005 02:05 4,2 C 5,4 C 90 % 1012 hPa 0,0 l/m 0,0 m/s (0 Bft) W-NW 295 0,00 min 0 lux 2,7 C 4,2 C
12.06.2005 02:10 4,1 C 5,3 C 90 % 1012 hPa 0,0 l/m 0,0 m/s (0 Bft) W-NW 295 0,00 min 0 lux 2,6 C 4,1 C
12.06.2005 02:15 4,0 C 5,3 C 90 % 1012 hPa 0,0 l/m 0,0 m/s (0 Bft) W22.5 275 0,00 min 0 lux 2,5 C 4,0 C
12.06.2005 02:20 4,0 C 5,2 C 90 % 1012 hPa 0,0 l/m 0,0 m/s (0 Bft) W22.5 265 0,00 min 0 lux 2,5 C 4,0 C
12.06.2005 02:25 3,9 C 5,1 C 91 % 1012 hPa 0,0 l/m 0,0 m/s (0 Bft) W 275 0,00 min 0 lux 2,6 C 3,9 C
12.06.2005 02:30 3,7 C 5,0 C 91 % 1012 hPa 0,0 l/m 0,0 m/s (0 Bft) W 275 0,00 min 0 lux 2,4 C 3,7 C
12.06.2005 02:35 3,6 C 4,9 C 91 % 1012 hPa 0,0 l/m 0,0 m/s (0 Bft) W 275 0,00 min 0 lux 2,3 C 3,6 C
12.06.2005 02:40 3,5 C 4,8 C 92 % 1012 hPa 0,0 l/m 0,0 m/s (0 Bft) W 275 0,00 min 0 lux 2,3 C 3,5 C
12.06.2005 02:45 3,5 C 4,8 C 92 % 1012 hPa 0,0 l/m 0,0 m/s (0 Bft) W 275 0,00 min 0 lux 2,3 C 3,5 C
12.06.2005 02:50 3,5 C 4,7 C 92 % 1012 hPa 0,0 l/m 0,0 m/s (0 Bft) W 275 0,00 min 0 lux 2,3 C 3,5 C
12.06.2005 02:55 3,3 C 4,6 C 92 % 1012 hPa 0,0 l/m 0,0 m/s (0 Bft) W 280 0,00 min 0 lux 2,1 C 3,3 C
12.06.2005 03:00 3,4 C 4,5 C 92 % 1012 hPa 0,0 l/m 0,0 m/s (0 Bft) W 280 0,00 min 0 lux 2,2 C 3,4 C
12.06.2005 03:05 3,0 C 4,5 C 92 % 1012 hPa 0,0 l/m 0,0 m/s (0 Bft) W 280 0,00 min 0 lux 1,8 C 3,0 C
12.06.2005 03:10 3,0 C 4,4 C 92 % 1012 hPa 0,0 l/m 0,0 m/s (0 Bft) W 275 0,00 min 0 lux 1,8 C 3,0 C
12.06.2005 03:15 3,0 C 4,4 C 92 % 1012 hPa 0,0 l/m 0,0 m/s (0 Bft) W 275 0,00 min 0 lux 1,8 C 3,0 C
12.06.2005 03:20 3,0 C 4,2 C 92 % 1012 hPa 0,0 l/m 0,0 m/s (0 Bft) W 260 0,00 min 0 lux 1,8 C 3,0 C
12.06.2005 03:25 2,9 C 4,1 C 93 % 1012 hPa 0,0 l/m 0,0 m/s (0 Bft) W 260 0,00 min 0 lux 1,9 C 2,9 C
12.06.2005 03:30 3,0 C 4,0 C 93 % 1012 hPa 0,0 l/m 0,0 m/s (0 Bft) W 260 0,00 min 0 lux 2,0 C 3,0 C
12.06.2005 03:35 2,9 C 4,0 C 93 % 1012 hPa 0,0 l/m 0,0 m/s (0 Bft) W 260 0,00 min 0 lux 1,9 C 2,9 C
12.06.2005 03:40 2,7 C 3,9 C 93 % 1012 hPa 0,0 l/m 0,0 m/s (0 Bft) W 260 0,00 min 0 lux 1,7 C 2,7 C
12.06.2005 03:45 2,7 C 3,8 C 93 % 1012 hPa 0,0 l/m 0,0 m/s (0 Bft) W 260 0,00 min 0 lux 1,7 C 2,7 C
12.06.2005 03:50 2,7 C 3,8 C 93 % 1011 hPa 0,0 l/m 0,0 m/s (0 Bft) W 260 0,00 min 0 lux 1,7 C 2,7 C
12.06.2005 03:55 2,5 C 3,7 C 93 % 1011 hPa 0,0 l/m 0,0 m/s (0 Bft) W 260 0,00 min 0 lux 1,5 C 2,5 C
12.06.2005 04:00 2,5 C 3,6 C 93 % 1012 hPa 0,0 l/m 0,0 m/s (0 Bft) W 260 0,00 min 0 lux 1,5 C 2,5 C
12.06.2005 04:05 2,4 C 3,5 C 93 % 1011 hPa 0,0 l/m 0,0 m/s (0 Bft) W 260 0,00 min 0 lux 1,4 C 2,4 C
12.06.2005 04:10 2,5 C 3,5 C 93 % 1011 hPa 0,0 l/m 0,0 m/s (0 Bft) W 260 0,00 min 0 lux 1,5 C 2,5 C
12.06.2005 04:15 2,2 C 3,4 C 93 % 1011 hPa 0,0 l/m 0,0 m/s (0 Bft) W 260 0,00 min 0 lux 1,2 C 2,2 C
12.06.2005 04:20 2,1 C 3,3 C 93 % 1011 hPa 0,0 l/m 0,0 m/s (0 Bft) W 260 0,00 min 0 lux 1,1 C 2,1 C
12.06.2005 04:25 2,1 C 3,3 C 93 % 1011 hPa 0,0 l/m 0,0 m/s (0 Bft) W 260 0,00 min 0 lux 1,1 C 2,1 C
12.06.2005 04:30 1,9 C 3,2 C 94 % 1011 hPa 0,0 l/m 0,0 m/s (0 Bft) W 260 0,00 min 0 lux 1,0 C 1,9 C
12.06.2005 04:35 2,0 C 3,1 C 93 % 1011 hPa 0,0 l/m 0,0 m/s (0 Bft) W 260 0,00 min 0 lux 1,0 C 2,0 C
12.06.2005 04:40 1,8 C 3,0 C 94 % 1011 hPa 0,0 l/m 0,0 m/s (0 Bft) W 260 0,00 min 0 lux 0,9 C 1,8 C
12.06.2005 04:45 1,8 C 3,0 C 94 % 1011 hPa 0,0 l/m 0,0 m/s (0 Bft) W 260 0,00 min 0 lux 0,9 C 1,8 C
12.06.2005 04:50 1,8 C 2,9 C 94 % 1011 hPa 0,0 l/m 0,0 m/s (0 Bft) W 260 0,00 min 0 lux 0,9 C 1,8 C
12.06.2005 04:55 1,6 C 2,8 C 94 % 1011 hPa 0,0 l/m 0,0 m/s (0 Bft) W 260 0,00 min 59 lux 0,7 C 1,6 C
12.06.2005 05:00 1,7 C 2,8 C 94 % 1011 hPa 0,0 l/m 0,0 m/s (0 Bft) W 260 0,00 min 92 lux 0,8 C 1,7 C
12.06.2005 05:05 1,7 C 2,7 C 94 % 1011 hPa 0,0 l/m 0,0 m/s (0 Bft) W 260 0,00 min 138 lux 0,8 C 1,7 C
12.06.2005 05:10 1,6 C 2,6 C 94 % 1011 hPa 0,0 l/m 0,0 m/s (0 Bft) W 260 0,00 min 203 lux 0,7 C 1,6 C
12.06.2005 05:15 1,7 C 2,6 C 94 % 1011 hPa 0,0 l/m 0,0 m/s (0 Bft) W 260 0,00 min 286 lux 0,8 C 1,7 C
12.06.2005 05:20 1,8 C 2,7 C 94 % 1011 hPa 0,0 l/m 0,0 m/s (0 Bft) W 260 0,00 min 397 lux 0,9 C 1,8 C
12.06.2005 05:25 2,0 C 2,7 C 94 % 1011 hPa 0,0 l/m 0,0 m/s (0 Bft) W 260 0,00 min 562 lux 1,1 C 2,0 C
12.06.2005 05:30 2,1 C 2,8 C 94 % 1011 hPa 0,0 l/m 0,0 m/s (0 Bft) W 260 0,00 min 793 lux 1,2 C 2,1 C
12.06.2005 05:35 2,1 C 2,8 C 94 % 1011 hPa 0,0 l/m 0,0 m/s (0 Bft) W 260 0,00 min 1,09 klux 1,2 C 2,1 C
12.06.2005 05:40 2,1 C 2,9 C 94 % 1011 hPa 0,0 l/m 0,0 m/s (0 Bft) W 260 0,00 min 1,21 klux 1,2 C 2,1 C
12.06.2005 05:45 2,1 C 2,9 C 94 % 1011 hPa 0,0 l/m 0,0 m/s (0 Bft) W 260 0,00 min 1,39 klux 1,2 C 2,1 C
12.06.2005 05:50 2,3 C 3,0 C 94 % 1011 hPa 0,0 l/m 0,0 m/s (0 Bft) W 260 0,00 min 1,62 klux 1,4 C 2,3 C
12.06.2005 05:55 2,2 C 3,0 C 94 % 1011 hPa 0,0 l/m 0,0 m/s (0 Bft) W 260 0,00 min 2,07 klux 1,3 C 2,2 C
12.06.2005 06:00 2,3 C 3,0 C 94 % 1011 hPa 0,0 l/m 0,0 m/s (0 Bft) W 260 0,00 min 3,70 klux 1,4 C 2,3 C
12.06.2005 06:05 2,4 C 3,1 C 94 % 1011 hPa 0,0 l/m 0,0 m/s (0 Bft) W 260 0,00 min 4,54 klux 1,5 C 2,4 C
12.06.2005 06:10 2,4 C 3,2 C 94 % 1011 hPa 0,0 l/m 0,0 m/s (0 Bft) W 260 0,00 min 5,77 klux 1,5 C 2,4 C
12.06.2005 06:15 2,6 C 3,2 C 94 % 1011 hPa 0,0 l/m 0,0 m/s (0 Bft) W 260 0,00 min 6,98 klux 1,7 C 2,6 C
12.06.2005 06:20 2,5 C 3,2 C 94 % 1011 hPa 0,0 l/m 0,0 m/s (0 Bft) W 260 0,00 min 8,59 klux 1,6 C 2,5 C
12.06.2005 06:25 2,5 C 3,2 C 94 % 1011 hPa 0,0 l/m 0,0 m/s (0 Bft) W 260 0,00 min 8,69 klux 1,6 C 2,5 C
12.06.2005 06:30 2,5 C 3,1 C 94 % 1011 hPa 0,0 l/m 0,0 m/s (0 Bft) W 260 5,00 min 13,8 klux 1,6 C 2,5 C
12.06.2005 06:35 2,8 C 3,2 C 94 % 1011 hPa 0,0 l/m 0,0 m/s (0 Bft) W 260 5,00 min 15,7 klux 1,9 C 2,8 C
12.06.2005 06:40 4,2 C 3,2 C 93 % 1011 hPa 0,0 l/m 0,0 m/s (0 Bft) W 260 5,00 min 17,3 klux 3,2 C 4,2 C
12.06.2005 06:45 5,0 C 3,2 C 93 % 1011 hPa 0,0 l/m 0,0 m/s (0 Bft) W 260 5,00 min 19,0 klux 4,0 C 5,0 C
12.06.2005 06:50 6,7 C 3,2 C 88 % 1011 hPa 0,0 l/m 0,0 m/s (0 Bft) W 260 5,00 min 20,3 klux 4,9 C 6,7 C
12.06.2005 06:55 7,9 C 3,2 C 69 % 1011 hPa 0,0 l/m 0,0 m/s (0 Bft) W 260 5,00 min 21,9 klux 2,6 C 7,9 C
12.06.2005 07:00 8,6 C 3,3 C 65 % 1011 hPa 0,0 l/m 0,0 m/s (0 Bft) W-SW 255 5,00 min 24,1 klux 2,4 C 8,6 C
12.06.2005 07:05 9,6 C 3,3 C 57 % 1011 hPa 0,0 l/m 0,0 m/s (0 Bft) W-SW 240 5,00 min 25,4 klux 1,5 C 9,6 C
12.06.2005 07:10 9,2 C 3,5 C 56 % 1011 hPa 0,0 l/m 0,0 m/s (0 Bft) SW 235 5,00 min 26,1 klux 0,9 C 9,2 C
12.06.2005 07:15 9,8 C 3,5 C 52 % 1011 hPa 0,0 l/m 0,0 m/s (0 Bft) SW 235 5,00 min 27,5 klux 0,4 C 9,8 C
12.06.2005 07:20 9,2 C 3,6 C 52 % 1011 hPa 0,0 l/m 0,0 m/s (0 Bft) SW 235 5,00 min 28,6 klux -0,1 C 9,2 C
12.06.2005 07:25 9,6 C 3,7 C 53 % 1011 hPa 0,0 l/m 0,0 m/s (0 Bft) SW 235 5,00 min 29,1 klux 0,5 C 9,6 C
12.06.2005 07:30 8,7 C 3,8 C 55 % 1011 hPa 0,0 l/m 0,0 m/s (0 Bft) SW 235 5,00 min 31,1 klux 0,2 C 8,7 C
12.06.2005 07:35 9,7 C 4,0 C 55 % 1011 hPa 0,0 l/m 0,0 m/s (0 Bft) SW 230 5,00 min 35,2 klux 1,1 C 9,7 C
12.06.2005 07:40 9,7 C 4,3 C 56 % 1011 hPa 0,0 l/m 0,7 m/s (0 Bft) SW22.5 220 5,00 min 33,4 klux 1,4 C 9,7 C
12.06.2005 07:45 8,4 C 4,6 C 61 % 1011 hPa 0,0 l/m 0,3 m/s (0 Bft) S-SW22.5 210 0,00 min 23,4 klux 1,3 C 8,4 C
12.06.2005 07:50 8,5 C 4,6 C 61 % 1011 hPa 0,0 l/m 0,1 m/s (0 Bft) SW22.5 225 5,00 min 38,1 klux 1,4 C 8,5 C
12.06.2005 07:55 10,2 C 5,0 C 57 % 1011 hPa 0,0 l/m 0,3 m/s (0 Bft) W-SW22.5 250 5,00 min 40,2 klux 2,1 C 10,2 C
12.06.2005 08:00 10,4 C 5,1 C 54 % 1011 hPa 0,0 l/m 0,2 m/s (0 Bft) SW45 230 5,00 min 41,0 klux 1,5 C 10,4 C
12.06.2005 08:05 10,8 C 5,4 C 53 % 1011 hPa 0,0 l/m 1,5 m/s (1 Bft) SW22.5 230 5,00 min 44,7 klux 1,6 C 10,8 C
12.06.2005 08:10 11,3 C 5,8 C 55 % 1011 hPa 0,0 l/m 2,4 m/s (1 Bft) W-SW45 240 5,00 min 45,5 klux 2,6 C 9,8 C
12.06.2005 08:15 12,0 C 6,1 C 53 % 1011 hPa 0,0 l/m 2,0 m/s (1 Bft) W-SW22.5 245 5,00 min 46,8 klux 2,7 C 11,5 C
12.06.2005 08:20 11,3 C 6,3 C 55 % 1011 hPa 0,0 l/m 1,9 m/s (1 Bft) W-SW22.5 250 5,00 min 45,6 klux 2,6 C 11,1 C
12.06.2005 08:25 12,2 C 6,7 C 55 % 1011 hPa 0,0 l/m 2,7 m/s (1 Bft) W-SW45 250 5,00 min 48,0 klux 3,4 C 10,1 C
12.06.2005 08:30 13,5 C 7,1 C 49 % 1011 hPa 0,0 l/m 2,6 m/s (1 Bft) W-SW45 240 5,00 min 51,1 klux 3,0 C 11,7 C
12.06.2005 08:35 13,2 C 7,5 C 48 % 1011 hPa 0,0 l/m 2,9 m/s (1 Bft) SW22.5 235 5,00 min 53,5 klux 2,4 C 10,8 C
12.06.2005 08:40 13,9 C 7,7 C 47 % 1011 hPa 0,0 l/m 2,8 m/s (1 Bft) SW45 225 5,00 min 55,3 klux 2,8 C 12,0 C
12.06.2005 08:45 12,3 C 8,1 C 53 % 1011 hPa 0,0 l/m 2,5 m/s (1 Bft) W-SW45 250 5,00 min 57,4 klux 3,0 C 10,7 C
12.06.2005 08:50 11,4 C 8,4 C 58 % 1011 hPa 0,0 l/m 2,4 m/s (1 Bft) SW67.5 235 5,00 min 61,5 klux 3,4 C 9,9 C
12.06.2005 08:55 11,2 C 8,6 C 60 % 1011 hPa 0,0 l/m 3,0 m/s (1 Bft) W-NW45 285 0,00 min 34,2 klux 3,7 C 8,5 C
12.06.2005 09:00 11,2 C 8,9 C 61 % 1011 hPa 0,0 l/m 4,3 m/s (1 Bft) W-NW45 295 0,00 min 35,3 klux 4,0 C 6,4 C
12.06.2005 09:05 11,5 C 9,2 C 62 % 1011 hPa 0,0 l/m 3,1 m/s (1 Bft) W-NW67.5 290 5,00 min 57,5 klux 4,5 C 8,6 C
12.06.2005 09:10 11,5 C 9,4 C 62 % 1011 hPa 0,0 l/m 4,4 m/s (1 Bft) W-NW45 285 0,00 min 36,6 klux 4,5 C 6,6 C
12.06.2005 09:15 10,9 C 9,6 C 62 % 1011 hPa 0,0 l/m 4,8 m/s (1 Bft) W-NW45 295 5,00 min 66,7 klux 3,9 C 5,4 C
12.06.2005 09:20 10,6 C 9,7 C 63 % 1011 hPa 0,0 l/m 5,4 m/s (1 Bft) W-NW22.5 285 5,00 min 65,0 klux 3,9 C 4,3 C
12.06.2005 09:25 11,0 C 9,8 C 63 % 1011 hPa 0,0 l/m 3,6 m/s (1 Bft) W45 260 5,00 min 63,6 klux 4,2 C 7,2 C
12.06.2005 09:30 11,4 C 10,0 C 61 % 1011 hPa 0,0 l/m 3,4 m/s (1 Bft) W-NW67.5 295 5,00 min 75,4 klux 4,2 C 7,9 C
12.06.2005 09:35 11,5 C 10,4 C 61 % 1011 hPa 0,0 l/m 3,1 m/s (1 Bft) W67.5 265 0,00 min 43,0 klux 4,2 C 8,7 C
12.06.2005 09:40 11,1 C 10,5 C 58 % 1011 hPa 0,0 l/m 5,5 m/s (1 Bft) W-NW45 290 0,00 min 20,4 klux 3,2 C 4,7 C
12.06.2005 09:45 10,8 C 10,5 C 60 % 1011 hPa 0,0 l/m 6,0 m/s (2 Bft) W-NW45 295 0,00 min 22,7 klux 3,4 C 3,8 C
12.06.2005 09:50 10,5 C 10,5 C 61 % 1011 hPa 0,0 l/m 5,4 m/s (1 Bft) W45 275 0,00 min 33,5 klux 3,3 C 4,1 C
12.06.2005 09:55 11,6 C 10,8 C 61 % 1011 hPa 0,0 l/m 2,9 m/s (1 Bft) W67.5 280 5,00 min 84,7 klux 4,3 C 9,0 C
12.06.2005 10:00 12,0 C 11,2 C 58 % 1011 hPa 0,0 l/m 4,2 m/s (1 Bft) W22.5 280 5,00 min 85,5 klux 4,0 C 7,5 C
12.06.2005 10:05 11,6 C 11,2 C 58 % 1011 hPa 0,0 l/m 7,4 m/s (2 Bft) NW67.5 305 0,00 min 28,0 klux 3,6 C 3,6 C
12.06.2005 10:10 10,8 C 11,3 C 59 % 1011 hPa 0,0 l/m 6,4 m/s (2 Bft) NW45 305 0,00 min 25,3 klux 3,1 C 3,4 C
12.06.2005 10:15 10,7 C 11,3 C 59 % 1011 hPa 0,0 l/m 5,5 m/s (1 Bft) W-NW45 290 5,00 min 86,7 klux 3,0 C 4,2 C
12.06.2005 10:20 11,4 C 11,3 C 59 % 1011 hPa 0,0 l/m 4,6 m/s (1 Bft) W-NW67.5 295 0,00 min 45,4 klux 3,7 C 6,3 C
12.06.2005 10:25 11,5 C 12,2 C 57 % 1011 hPa 0,0 l/m 4,0 m/s (1 Bft) W45 280 5,00 min 90,3 klux 3,3 C 7,2 C
12.06.2005 10:30 11,7 C 12,6 C 57 % 1011 hPa 0,0 l/m 6,0 m/s (2 Bft) W22.5 260 5,00 min 91,6 klux 3,5 C 5,0 C
12.06.2005 10:35 11,6 C 12,8 C 56 % 1011 hPa 0,0 l/m 5,6 m/s (1 Bft) W45 270 5,00 min 58,9 klux 3,1 C 5,3 C
12.06.2005 10:40 12,2 C 13,0 C 56 % 1011 hPa 0,0 l/m 4,3 m/s (1 Bft) W67.5 280 0,00 min 47,4 klux 3,7 C 7,6 C
12.06.2005 10:45 12,8 C 13,3 C 56 % 1011 hPa 0,0 l/m 4,4 m/s (1 Bft) W-NW45 290 5,00 min 92,3 klux 4,2 C 8,2 C
12.06.2005 10:50 13,1 C 14,0 C 55 % 1011 hPa 0,0 l/m 4,1 m/s (1 Bft) W-NW67.5 295 0,00 min 44,3 klux 4,3 C 9,0 C
12.06.2005 10:55 12,7 C 14,0 C 50 % 1011 hPa 0,0 l/m 5,2 m/s (1 Bft) NW67.5 305 0,00 min 38,2 klux 2,6 C 7,2 C
12.06.2005 11:00 11,9 C 14,0 C 50 % 1011 hPa 0,0 l/m 4,6 m/s (1 Bft) W45 275 0,00 min 32,4 klux 1,8 C 6,8 C
12.06.2005 11:05 11,8 C 13,9 C 52 % 1011 hPa 0,0 l/m 4,8 m/s (1 Bft) W67.5 260 0,00 min 36,1 klux 2,3 C 6,5 C
12.06.2005 11:10 11,9 C 13,7 C 51 % 1011 hPa 0,0 l/m 6,1 m/s (2 Bft) W22.5 280 0,00 min 51,5 klux 2,1 C 5,2 C
12.06.2005 11:15 12,6 C 13,8 C 49 % 1011 hPa 0,0 l/m 5,0 m/s (1 Bft) W45 275 0,00 min 62,4 klux 2,2 C 7,3 C
12.06.2005 11:20 13,0 C 14,2 C 50 % 1011 hPa 0,0 l/m 2,8 m/s (1 Bft) W45 260 5,00 min 66,7 klux 2,8 C 10,9 C
12.06.2005 11:25 12,9 C 14,3 C 47 % 1011 hPa 0,0 l/m 5,1 m/s (1 Bft) W22.5 270 0,00 min 48,9 klux 1,9 C 7,5 C
12.06.2005 11:30 13,1 C 14,5 C 47 % 1011 hPa 0,0 l/m 6,0 m/s (2 Bft) W-NW67.5 285 5,00 min 94,7 klux 2,0 C 6,9 C
12.06.2005 11:35 13,1 C 15,5 C 44 % 1011 hPa 0,0 l/m 5,3 m/s (1 Bft) W45 270 5,00 min 102 klux 1,1 C 7,6 C
12.06.2005 11:40 13,7 C 16,5 C 44 % 1011 hPa 0,0 l/m 6,5 m/s (2 Bft) W-SW22.5 255 5,00 min 105 klux 1,7 C 7,2 C
12.06.2005 11:45 13,3 C 16,5 C 45 % 1011 hPa 0,0 l/m 3,7 m/s (1 Bft) W-SW67.5 250 0,00 min 35,9 klux 1,6 C 9,8 C
12.06.2005 11:50 13,1 C 16,5 C 46 % 1011 hPa 0,0 l/m 4,4 m/s (1 Bft) W-NW45 295 0,00 min 31,7 klux 1,7 C 8,6 C
12.06.2005 11:55 12,7 C 15,0 C 47 % 1011 hPa 0,0 l/m 6,1 m/s (2 Bft) W-NW45 300 0,00 min 28,9 klux 1,7 C 6,3 C
12.06.2005 12:00 12,4 C 14,7 C 48 % 1011 hPa 0,0 l/m 6,7 m/s (2 Bft) W45 280 0,00 min 28,5 klux 1,7 C 5,3 C
12.06.2005 12:05 12,6 C 14,3 C 48 % 1011 hPa 0,0 l/m 4,1 m/s (1 Bft) W67.5 275 0,00 min 33,4 klux 1,9 C 8,4 C
12.06.2005 12:10 12,8 C 14,1 C 48 % 1011 hPa 0,0 l/m 4,8 m/s (1 Bft) W-NW45 290 0,00 min 34,3 klux 2,1 C 7,7 C
12.06.2005 12:15 12,2 C 13,9 C 48 % 1011 hPa 0,0 l/m 5,1 m/s (1 Bft) W45 275 0,00 min 38,5 klux 1,5 C 6,6 C
12.06.2005 12:20 12,1 C 14,2 C 48 % 1011 hPa 0,0 l/m 3,8 m/s (1 Bft) W22.5 265 5,00 min 106 klux 1,4 C 8,3 C
12.06.2005 12:25 13,7 C 15,3 C 46 % 1011 hPa 0,0 l/m 3,3 m/s (1 Bft) SW45 230 5,00 min 85,5 klux 2,3 C 10,8 C
12.06.2005 12:30 13,3 C 15,6 C 45 % 1011 hPa 0,0 l/m 3,9 m/s (1 Bft) W-SW67.5 250 0,00 min 28,0 klux 1,6 C 9,5 C
12.06.2005 12:35 12,7 C 15,6 C 46 % 1011 hPa 0,0 l/m 4,6 m/s (1 Bft) W67.5 270 0,00 min 22,8 klux 1,4 C 7,8 C
12.06.2005 12:40 12,6 C 14,9 C 46 % 1011 hPa 0,0 l/m 3,9 m/s (1 Bft) W22.5 260 0,00 min 23,3 klux 1,3 C 8,6 C
12.06.2005 12:45 13,2 C 14,7 C 46 % 1011 hPa 0,0 l/m 1,0 m/s (0 Bft) W22.5 265 0,00 min 32,8 klux 1,8 C 13,2 C
12.06.2005 12:50 13,4 C 14,8 C 42 % 1011 hPa 0,0 l/m 4,6 m/s (1 Bft) W45 265 0,00 min 56,7 klux 0,8 C 8,7 C
12.06.2005 12:55 14,3 C 15,4 C 41 % 1011 hPa 0,0 l/m 4,0 m/s (1 Bft) W45 270 5,00 min 104 klux 1,2 C 10,6 C
12.06.2005 13:00 15,0 C 16,0 C 41 % 1011 hPa 0,0 l/m 2,3 m/s (1 Bft) S67.5 170 0,00 min 60,1 klux 1,9 C 14,0 C
12.06.2005 13:05 13,8 C 15,7 C 40 % 1011 hPa 0,0 l/m 2,3 m/s (1 Bft) S67.5 170 0,00 min 25,5 klux 0,4 C 12,8 C
12.06.2005 13:10 12,8 C 15,4 C 40 % 1011 hPa 0,0 l/m 4,5 m/s (1 Bft) W45 260 0,00 min 17,8 klux -0,5 C 8,1 C
12.06.2005 13:15 12,9 C 14,9 C 42 % 1011 hPa 0,0 l/m 5,1 m/s (1 Bft) W22.5 265 0,00 min 20,9 klux 0,3 C 7,5 C
12.06.2005 13:20 12,6 C 14,6 C 42 % 1011 hPa 0,0 l/m 5,1 m/s (1 Bft) W22.5 270 0,00 min 23,9 klux 0,0 C 7,1 C
12.06.2005 13:25 13,5 C 14,5 C 43 % 1011 hPa 0,0 l/m 2,9 m/s (1 Bft) W45 280 0,00 min 34,5 klux 1,2 C 11,2 C
12.06.2005 13:30 13,3 C 14,6 C 40 % 1011 hPa 0,0 l/m 4,8 m/s (1 Bft) W22.5 260 0,00 min 37,7 klux -0,0 C 8,4 C
12.06.2005 13:35 13,6 C 14,6 C 41 % 1011 hPa 0,0 l/m 4,6 m/s (1 Bft) W-NW67.5 285 0,00 min 37,7 klux 0,6 C 8,9 C
12.06.2005 13:40 13,3 C 14,6 C 39 % 1011 hPa 0,0 l/m 5,7 m/s (1 Bft) W45 265 0,00 min 34,8 klux -0,4 C 7,4 C
12.06.2005 13:45 13,4 C 14,5 C 40 % 1010 hPa 0,0 l/m 4,0 m/s (1 Bft) W22.5 260 0,00 min 32,8 klux 0,1 C 9,4 C
12.06.2005 13:50 13,0 C 14,4 C 40 % 1010 hPa 0,0 l/m 5,5 m/s (1 Bft) W45 260 0,00 min 30,7 klux -0,3 C 7,2 C
12.06.2005 13:55 13,2 C 14,2 C 42 % 1011 hPa 0,0 l/m 4,5 m/s (1 Bft) W45 270 0,00 min 24,4 klux 0,6 C 8,6 C
12.06.2005 14:00 12,9 C 14,2 C 43 % 1011 hPa 0,0 l/m 4,5 m/s (1 Bft) W45 270 0,00 min 27,3 klux 0,6 C 8,3 C
12.06.2005 14:05 12,9 C 14,2 C 43 % 1011 hPa 0,0 l/m 3,8 m/s (1 Bft) W22.5 265 0,00 min 43,8 klux 0,6 C 9,2 C
12.06.2005 14:10 13,5 C 14,4 C 42 % 1011 hPa 0,0 l/m 3,8 m/s (1 Bft) W45 260 0,00 min 39,0 klux 0,8 C 9,9 C
12.06.2005 14:15 14,1 C 14,5 C 42 % 1011 hPa 0,0 l/m 4,0 m/s (1 Bft) W-NW67.5 290 0,00 min 44,1 klux 1,4 C 10,3 C
12.06.2005 14:20 14,0 C 14,6 C 42 % 1011 hPa 0,0 l/m 4,2 m/s (1 Bft) W22.5 270 0,00 min 44,7 klux 1,3 C 10,0 C
12.06.2005 14:25 14,2 C 14,8 C 42 % 1011 hPa 0,0 l/m 2,6 m/s (1 Bft) W-NW45 285 0,00 min 46,0 klux 1,5 C 12,6 C
12.06.2005 14:30 14,3 C 15,2 C 41 % 1011 hPa 0,0 l/m 4,4 m/s (1 Bft) W-NW67.5 300 0,00 min 55,3 klux 1,2 C 10,0 C
12.06.2005 14:35 14,4 C 15,5 C 41 % 1011 hPa 0,0 l/m 3,1 m/s (1 Bft) W-SW22.5 250 5,00 min 68,0 klux 1,3 C 12,0 C
12.06.2005 14:40 15,3 C 16,4 C 41 % 1010 hPa 0,0 l/m 2,8 m/s (1 Bft) SW67.5 235 5,00 min 78,4 klux 2,1 C 13,4 C
12.06.2005 14:45 14,4 C 17,5 C 39 % 1010 hPa 0,0 l/m 5,9 m/s (2 Bft) W45 270 5,00 min 97,1 klux 0,6 C 8,6 C
12.06.2005 14:50 14,8 C 18,0 C 41 % 1010 hPa 0,0 l/m 6,6 m/s (2 Bft) W45 260 5,00 min 96,4 klux 1,7 C 8,6 C
12.06.2005 14:55 14,4 C 18,2 C 41 % 1010 hPa 0,0 l/m 5,3 m/s (1 Bft) W45 260 5,00 min 94,9 klux 1,3 C 9,2 C
12.06.2005 15:00 14,6 C 19,4 C 40 % 1010 hPa 0,0 l/m 4,3 m/s (1 Bft) W-SW67.5 245 5,00 min 92,3 klux 1,2 C 10,6 C
12.06.2005 15:05 14,5 C 19,3 C 40 % 1010 hPa 0,0 l/m 3,3 m/s (1 Bft) W-SW45 245 0,00 min 38,6 klux 1,1 C 11,7 C
12.06.2005 15:10 14,6 C 19,5 C 40 % 1010 hPa 0,0 l/m 6,8 m/s (2 Bft) W22.5 265 5,00 min 106 klux 1,2 C 8,2 C
12.06.2005 15:15 15,5 C 19,9 C 39 % 1010 hPa 0,0 l/m 3,9 m/s (1 Bft) W-SW45 250 5,00 min 95,2 klux 1,6 C 12,1 C
12.06.2005 15:20 17,0 C 21,8 C 38 % 1010 hPa 0,0 l/m 4,1 m/s (1 Bft) W-SW45 250 5,00 min 103 klux 2,6 C 13,7 C
12.06.2005 15:25 15,7 C 21,8 C 36 % 1010 hPa 0,0 l/m 4,0 m/s (1 Bft) W-SW45 250 5,00 min 105 klux 0,7 C 12,2 C
12.06.2005 15:30 15,5 C 20,5 C 37 % 1010 hPa 0,0 l/m 3,9 m/s (1 Bft) W-SW45 245 0,00 min 29,5 klux 0,9 C 12,1 C
12.06.2005 15:35 14,9 C 19,5 C 40 % 1010 hPa 0,0 l/m 4,0 m/s (1 Bft) W22.5 260 0,00 min 33,7 klux 1,4 C 11,2 C
12.06.2005 15:40 15,5 C 19,2 C 40 % 1010 hPa 0,0 l/m 2,9 m/s (1 Bft) W-NW67.5 300 0,00 min 52,4 klux 2,0 C 13,5 C
12.06.2005 15:45 15,2 C 18,6 C 39 % 1010 hPa 0,0 l/m 5,1 m/s (1 Bft) W-NW45 290 0,00 min 36,8 klux 1,3 C 10,5 C
12.06.2005 15:50 15,3 C 18,0 C 40 % 1010 hPa 0,0 l/m 3,3 m/s (1 Bft) W45 275 0,00 min 35,3 klux 1,8 C 12,7 C
12.06.2005 15:55 15,2 C 17,9 C 37 % 1010 hPa 0,0 l/m 4,6 m/s (1 Bft) W45 265 0,00 min 58,6 klux 0,6 C 11,0 C
12.06.2005 16:00 15,1 C 18,4 C 36 % 1010 hPa 0,0 l/m 4,5 m/s (1 Bft) W-SW45 250 5,00 min 102 klux 0,1 C 10,9 C
12.06.2005 16:05 15,5 C 19,8 C 36 % 1010 hPa 0,0 l/m 4,7 m/s (1 Bft) W22.5 260 5,00 min 91,4 klux 0,5 C 11,2 C
12.06.2005 16:10 15,8 C 21,3 C 35 % 1010 hPa 0,0 l/m 2,2 m/s (1 Bft) W-SW45 245 5,00 min 88,9 klux 0,4 C 15,0 C
12.06.2005 16:15 16,0 C 21,4 C 35 % 1010 hPa 0,0 l/m 0,0 m/s (0 Bft) W-SW67.5 240 5,00 min 91,6 klux 0,6 C 16,0 C
12.06.2005 16:20 14,7 C 20,8 C 36 % 1010 hPa 0,0 l/m 5,6 m/s (1 Bft) W-SW45 255 0,00 min 27,8 klux -0,2 C 9,3 C
12.06.2005 16:25 15,0 C 20,1 C 36 % 1010 hPa 0,0 l/m 5,3 m/s (1 Bft) W67.5 280 0,00 min 33,4 klux 0,1 C 10,0 C
12.06.2005 16:30 15,6 C 20,2 C 38 % 1010 hPa 0,0 l/m 5,5 m/s (1 Bft) W67.5 265 0,00 min 44,4 klux 1,3 C 10,5 C
12.06.2005 16:35 15,9 C 20,0 C 38 % 1010 hPa 0,0 l/m 4,9 m/s (1 Bft) W-NW22.5 290 5,00 min 97,2 klux 1,6 C 11,5 C
12.06.2005 16:40 15,7 C 20,3 C 38 % 1010 hPa 0,0 l/m 2,2 m/s (1 Bft) W-SW45 245 0,00 min 40,5 klux 1,4 C 14,8 C
12.06.2005 16:45 15,9 C 20,9 C 37 % 1010 hPa 0,0 l/m 2,9 m/s (1 Bft) W22.5 265 5,00 min 89,9 klux 1,2 C 14,0 C
12.06.2005 16:50 16,6 C 21,4 C 38 % 1010 hPa 0,0 l/m 4,8 m/s (1 Bft) W45 270 5,00 min 84,4 klux 2,2 C 12,5 C
12.06.2005 16:55 16,6 C 23,0 C 36 % 1010 hPa 0,0 l/m 2,1 m/s (1 Bft) N67.5 0 5,00 min 76,5 klux 1,5 C 15,9 C
12.06.2005 17:00 16,2 C 23,8 C 34 % 1010 hPa 0,0 l/m 2,3 m/s (1 Bft) W45 265 5,00 min 79,3 klux 0,3 C 15,2 C
12.06.2005 17:05 16,7 C 24,0 C 35 % 1010 hPa 0,0 l/m 5,7 m/s (1 Bft) W67.5 265 5,00 min 77,5 klux 1,2 C 11,9 C
12.06.2005 17:10 16,9 C 24,2 C 34 % 1010 hPa 0,0 l/m 3,4 m/s (1 Bft) W45 270 5,00 min 54,4 klux 0,9 C 14,3 C
12.06.2005 17:15 16,9 C 24,3 C 33 % 1010 hPa 0,0 l/m 4,7 m/s (1 Bft) SW67.5 230 5,00 min 56,5 klux 0,5 C 12,9 C
12.06.2005 17:20 16,9 C 23,2 C 33 % 1010 hPa 0,0 l/m 3,3 m/s (1 Bft) S-SW67.5 195 0,00 min 42,1 klux 0,5 C 14,5 C
12.06.2005 17:25 17,2 C 23,2 C 32 % 1010 hPa 0,0 l/m 5,1 m/s (1 Bft) W-SW67.5 245 5,00 min 83,4 klux 0,4 C 12,9 C
12.06.2005 17:30 17,1 C 23,1 C 33 % 1010 hPa 0,0 l/m 3,4 m/s (1 Bft) W-SW45 245 5,00 min 76,8 klux 0,7 C 14,6 C
12.06.2005 17:35 17,2 C 23,6 C 34 % 1009 hPa 0,0 l/m 3,9 m/s (1 Bft) W45 260 5,00 min 74,5 klux 1,2 C 14,1 C
12.06.2005 17:40 17,0 C 23,0 C 33 % 1009 hPa 0,0 l/m 4,6 m/s (1 Bft) W-SW67.5 255 5,00 min 47,3 klux 0,6 C 13,2 C
12.06.2005 17:45 16,5 C 22,2 C 34 % 1009 hPa 0,0 l/m 3,0 m/s (1 Bft) SW67.5 225 0,00 min 29,1 klux 0,6 C 14,5 C
12.06.2005 17:50 16,3 C 21,5 C 34 % 1009 hPa 0,0 l/m 3,3 m/s (1 Bft) SW45 230 0,00 min 24,9 klux 0,4 C 13,8 C
12.06.2005 17:55 15,9 C 20,9 C 34 % 1009 hPa 0,0 l/m 2,7 m/s (1 Bft) SW45 235 0,00 min 24,9 klux 0,1 C 14,2 C
12.06.2005 18:00 15,7 C 20,1 C 35 % 1009 hPa 0,0 l/m 3,2 m/s (1 Bft) W-SW45 245 0,00 min 27,8 klux 0,3 C 13,2 C
12.06.2005 18:05 16,4 C 19,6 C 35 % 1009 hPa 0,0 l/m 2,6 m/s (1 Bft) W-SW45 240 0,00 min 25,6 klux 0,9 C 14,9 C
12.06.2005 18:10 16,3 C 19,5 C 36 % 1009 hPa 0,0 l/m 1,6 m/s (1 Bft) S-SW67.5 195 0,00 min 34,8 klux 1,2 C 16,3 C
12.06.2005 18:15 16,6 C 19,6 C 35 % 1009 hPa 0,0 l/m 2,3 m/s (1 Bft) W-SW22.5 250 0,00 min 33,6 klux 1,1 C 15,7 C
12.06.2005 18:20 16,4 C 19,7 C 35 % 1009 hPa 0,0 l/m 1,5 m/s (1 Bft) W-SW45 250 0,00 min 34,1 klux 0,9 C 16,4 C
12.06.2005 18:25 16,4 C 19,6 C 37 % 1009 hPa 0,0 l/m 0,8 m/s (0 Bft) W 275 0,00 min 31,5 klux 1,7 C 16,4 C
12.06.2005 18:30 16,4 C 19,6 C 37 % 1009 hPa 0,0 l/m 2,3 m/s (1 Bft) SW67.5 230 0,00 min 25,6 klux 1,7 C 15,5 C
12.06.2005 18:35 15,5 C 19,3 C 37 % 1009 hPa 0,0 l/m 3,1 m/s (1 Bft) W-SW45 245 5,00 min 36,3 klux 0,9 C 13,2 C
12.06.2005 18:40 15,5 C 19,0 C 38 % 1009 hPa 0,0 l/m 3,4 m/s (1 Bft) W-SW22.5 250 0,00 min 21,9 klux 1,3 C 12,8 C
12.06.2005 18:45 15,6 C 18,7 C 39 % 1009 hPa 0,0 l/m 2,9 m/s (1 Bft) W-SW67.5 245 0,00 min 29,3 klux 1,7 C 13,6 C
12.06.2005 18:50 15,8 C 18,6 C 37 % 1009 hPa 0,0 l/m 3,6 m/s (1 Bft) W-SW22.5 240 0,00 min 19,8 klux 1,1 C 12,9 C
12.06.2005 18:55 15,5 C 18,2 C 37 % 1009 hPa 0,0 l/m 2,6 m/s (1 Bft) SW22.5 230 0,00 min 19,7 klux 0,9 C 14,0 C
12.06.2005 19:00 15,6 C 18,6 C 38 % 1009 hPa 0,0 l/m 1,7 m/s (1 Bft) W-SW45 250 5,00 min 50,0 klux 1,3 C 15,6 C
12.06.2005 19:05 16,6 C 19,2 C 35 % 1009 hPa 0,0 l/m 2,6 m/s (1 Bft) W-SW45 250 5,00 min 51,5 klux 1,1 C 15,1 C
12.06.2005 19:10 16,9 C 19,7 C 35 % 1009 hPa 0,0 l/m 2,8 m/s (1 Bft) SW67.5 215 5,00 min 31,9 klux 1,3 C 15,2 C
12.06.2005 19:15 17,1 C 19,7 C 35 % 1009 hPa 0,0 l/m 2,9 m/s (1 Bft) W22.5 260 5,00 min 39,0 klux 1,5 C 15,3 C
12.06.2005 19:20 16,7 C 19,7 C 35 % 1009 hPa 0,0 l/m 3,2 m/s (1 Bft) W45 260 5,00 min 25,7 klux 1,2 C 14,4 C
12.06.2005 19:25 15,5 C 19,4 C 36 % 1009 hPa 0,0 l/m 2,8 m/s (1 Bft) W-SW22.5 255 0,00 min 22,1 klux 0,5 C 13,7 C
12.06.2005 19:30 15,9 C 18,9 C 37 % 1009 hPa 0,0 l/m 1,5 m/s (1 Bft) W-SW45 250 0,00 min 20,9 klux 1,2 C 15,9 C
12.06.2005 19:35 15,6 C 18,7 C 38 % 1009 hPa 0,0 l/m 3,1 m/s (1 Bft) W45 260 5,00 min 24,2 klux 1,3 C 13,4 C
12.06.2005 19:40 16,6 C 18,4 C 37 % 1009 hPa 0,0 l/m 3,2 m/s (1 Bft) W-SW22.5 245 5,00 min 29,4 klux 1,9 C 14,3 C
12.06.2005 19:45 17,9 C 18,7 C 34 % 1009 hPa 0,0 l/m 1,6 m/s (1 Bft) SW67.5 225 5,00 min 36,1 klux 1,8 C 17,9 C
12.06.2005 19:50 17,9 C 18,8 C 34 % 1008 hPa 0,0 l/m 2,5 m/s (1 Bft) W-SW67.5 245 5,00 min 31,3 klux 1,8 C 16,7 C
12.06.2005 19:55 16,4 C 18,6 C 36 % 1008 hPa 0,0 l/m 1,6 m/s (1 Bft) W-SW45 240 5,00 min 32,0 klux 1,3 C 16,4 C
12.06.2005 20:00 16,8 C 18,9 C 36 % 1008 hPa 0,0 l/m 2,4 m/s (1 Bft) W-SW45 255 5,00 min 26,6 klux 1,7 C 15,7 C
12.06.2005 20:05 16,4 C 18,9 C 37 % 1008 hPa 0,0 l/m 1,8 m/s (1 Bft) SW67.5 220 5,00 min 25,8 klux 1,7 C 16,3 C
12.06.2005 20:10 16,1 C 18,8 C 37 % 1008 hPa 0,0 l/m 2,3 m/s (1 Bft) SW22.5 225 5,00 min 24,3 klux 1,4 C 15,2 C
12.06.2005 20:15 15,7 C 18,5 C 38 % 1008 hPa 0,0 l/m 1,3 m/s (1 Bft) W-SW22.5 245 5,00 min 21,5 klux 1,4 C 15,7 C
12.06.2005 20:20 15,0 C 18,2 C 39 % 1008 hPa 0,0 l/m 2,5 m/s (1 Bft) SW45 230 5,00 min 21,0 klux 1,2 C 13,6 C
12.06.2005 20:25 14,9 C 18,1 C 41 % 1008 hPa 0,0 l/m 2,2 m/s (1 Bft) W-SW22.5 245 5,00 min 19,6 klux 1,8 C 14,1 C
12.06.2005 20:30 14,7 C 17,8 C 41 % 1008 hPa 0,0 l/m 2,1 m/s (1 Bft) W-SW45 250 5,00 min 18,4 klux 1,6 C 14,0 C
12.06.2005 20:35 14,6 C 17,5 C 42 % 1008 hPa 0,0 l/m 2,3 m/s (1 Bft) SW22.5 230 5,00 min 15,9 klux 1,8 C 13,5 C
12.06.2005 20:40 14,5 C 17,2 C 44 % 1008 hPa 0,0 l/m 0,0 m/s (0 Bft) S-SW22.5 195 5,00 min 14,8 klux 2,4 C 14,5 C
12.06.2005 20:45 14,4 C 17,0 C 44 % 1008 hPa 0,0 l/m 1,9 m/s (1 Bft) S-SO45 160 5,00 min 14,0 klux 2,3 C 14,1 C
12.06.2005 20:50 14,2 C 16,7 C 45 % 1008 hPa 0,0 l/m 1,6 m/s (1 Bft) S-SO22.5 165 5,00 min 9,9 klux 2,4 C 14,2 C
12.06.2005 20:55 14,0 C 16,5 C 45 % 1008 hPa 0,0 l/m 2,1 m/s (1 Bft) S-SW67.5 195 0,00 min 4,82 klux 2,3 C 13,3 C
12.06.2005 21:00 13,7 C 15,8 C 45 % 1008 hPa 0,0 l/m 1,9 m/s (1 Bft) S45 175 0,00 min 3,63 klux 2,0 C 13,5 C
12.06.2005 21:05 13,4 C 15,7 C 47 % 1008 hPa 0,0 l/m 0,1 m/s (0 Bft) S45 180 0,00 min 2,81 klux 2,3 C 13,4 C
12.06.2005 21:10 13,3 C 15,3 C 47 % 1008 hPa 0,0 l/m 2,0 m/s (1 Bft) S-SO22.5 165 0,00 min 2,46 klux 2,2 C 12,9 C
12.06.2005 21:15 13,1 C 15,1 C 48 % 1008 hPa 0,0 l/m 1,3 m/s (1 Bft) S-SO45 155 0,00 min 1,90 klux 2,3 C 13,1 C
12.06.2005 21:20 13,0 C 14,9 C 50 % 1008 hPa 0,0 l/m 1,5 m/s (1 Bft) S-SO22.5 150 0,00 min 1,35 klux 2,8 C 13,0 C
12.06.2005 21:25 12,4 C 14,5 C 55 % 1008 hPa 0,0 l/m 0,0 m/s (0 Bft) SO 130 0,00 min 977 lux 3,6 C 12,4 C
12.06.2005 21:30 12,2 C 14,4 C 55 % 1008 hPa 0,0 l/m 0,0 m/s (0 Bft) SO 125 0,00 min 826 lux 3,4 C 12,2 C
12.06.2005 21:35 11,8 C 14,0 C 56 % 1008 hPa 0,0 l/m 0,0 m/s (0 Bft) O-SO 110 0,00 min 603 lux 3,3 C 11,8 C
12.06.2005 21:40 11,2 C 13,7 C 59 % 1008 hPa 0,0 l/m 0,0 m/s (0 Bft) O-SO 105 0,00 min 444 lux 3,5 C 11,2 C
12.06.2005 21:45 11,2 C 13,4 C 59 % 1008 hPa 0,0 l/m 0,0 m/s (0 Bft) O-SO 105 0,00 min 306 lux 3,5 C 11,2 C
12.06.2005 21:50 11,0 C 13,1 C 60 % 1008 hPa 0,0 l/m 0,0 m/s (0 Bft) O-SO 105 0,00 min 207 lux 3,5 C 11,0 C
12.06.2005 21:55 10,8 C 13,0 C 61 % 1008 hPa 0,0 l/m 0,0 m/s (0 Bft) O-SO 105 0,00 min 138 lux 3,6 C 10,8 C
12.06.2005 22:00 10,8 C 12,8 C 62 % 1008 hPa 0,0 l/m 0,0 m/s (0 Bft) O-SO 105 0,00 min 85 lux 3,8 C 10,8 C
12.06.2005 22:05 10,5 C 12,6 C 62 % 1008 hPa 0,0 l/m 0,2 m/s (0 Bft) O 90 0,00 min 52 lux 3,5 C 10,5 C
12.06.2005 22:10 10,2 C 12,6 C 63 % 1008 hPa 0,0 l/m 0,0 m/s (0 Bft) O 85 0,00 min 31 lux 3,5 C 10,2 C
12.06.2005 22:15 10,1 C 12,4 C 63 % 1008 hPa 0,0 l/m 0,0 m/s (0 Bft) O 85 0,00 min 20 lux 3,4 C 10,1 C
12.06.2005 22:20 10,3 C 12,2 C 64 % 1008 hPa 0,0 l/m 0,0 m/s (0 Bft) O 85 0,00 min 15 lux 3,8 C 10,3 C
12.06.2005 22:25 10,1 C 12,1 C 66 % 1008 hPa 0,0 l/m 0,0 m/s (0 Bft) O 85 0,00 min 12 lux 4,0 C 10,1 C
12.06.2005 22:30 9,9 C 12,0 C 67 % 1008 hPa 0,0 l/m 0,0 m/s (0 Bft) O 85 0,00 min 6 lux 4,1 C 9,9 C
12.06.2005 22:35 9,8 C 11,8 C 67 % 1008 hPa 0,0 l/m 0,0 m/s (0 Bft) O 85 0,00 min 5 lux 4,0 C 9,8 C
12.06.2005 22:40 9,7 C 11,5 C 67 % 1008 hPa 0,0 l/m 0,0 m/s (0 Bft) O 85 0,00 min 4 lux 3,9 C 9,7 C
12.06.2005 22:45 9,2 C 11,5 C 69 % 1008 hPa 0,0 l/m 0,0 m/s (0 Bft) O 85 0,00 min 1 lux 3,8 C 9,2 C
12.06.2005 22:50 9,3 C 11,3 C 69 % 1008 hPa 0,0 l/m 0,0 m/s (0 Bft) O 85 0,00 min 0 lux 3,9 C 9,3 C
12.06.2005 22:55 9,2 C 11,2 C 70 % 1008 hPa 0,0 l/m 0,0 m/s (0 Bft) O 85 0,00 min 0 lux 4,0 C 9,2 C
12.06.2005 23:00 9,3 C 11,2 C 71 % 1008 hPa 0,0 l/m 0,0 m/s (0 Bft) O 85 0,00 min 0 lux 4,3 C 9,3 C
12.06.2005 23:05 9,2 C 11,0 C 71 % 1008 hPa 0,0 l/m 0,0 m/s (0 Bft) O 85 0,00 min 0 lux 4,2 C 9,2 C
12.06.2005 23:10 9,1 C 10,9 C 72 % 1008 hPa 0,0 l/m 0,0 m/s (0 Bft) O 85 0,00 min 0 lux 4,3 C 9,1 C
12.06.2005 23:15 8,9 C 10,8 C 73 % 1008 hPa 0,0 l/m 0,0 m/s (0 Bft) O 85 0,00 min 0 lux 4,3 C 8,9 C
12.06.2005 23:20 8,9 C 10,8 C 74 % 1008 hPa 0,0 l/m 0,0 m/s (0 Bft) O 85 0,00 min 0 lux 4,5 C 8,9 C
12.06.2005 23:25 8,9 C 10,7 C 74 % 1008 hPa 0,0 l/m 0,0 m/s (0 Bft) O 85 0,00 min 0 lux 4,5 C 8,9 C
12.06.2005 23:30 8,9 C 10,6 C 74 % 1008 hPa 0,0 l/m 0,0 m/s (0 Bft) O 85 0,00 min 0 lux 4,5 C 8,9 C
12.06.2005 23:35 9,0 C 10,6 C 74 % 1008 hPa 0,0 l/m 0,0 m/s (0 Bft) W-NW 295 0,00 min 0 lux 4,6 C 9,0 C
12.06.2005 23:40 9,0 C 10,6 C 74 % 1007 hPa 0,0 l/m 0,0 m/s (0 Bft) W-NW 295 0,00 min 0 lux 4,6 C 9,0 C
12.06.2005 23:45 9,1 C 10,5 C 74 % 1007 hPa 0,0 l/m 0,0 m/s (0 Bft) W-NW 295 0,00 min 0 lux 4,7 C 9,1 C
12.06.2005 23:50 8,8 C 10,5 C 75 % 1007 hPa 0,0 l/m 0,0 m/s (0 Bft) NW67.5 310 0,00 min 0 lux 4,6 C 8,8 C
12.06.2005 23:55 8,8 C 10,4 C 76 % 1007 hPa 0,0 l/m 0,0 m/s (0 Bft) O-SO 105 0,00 min 0 lux 4,8 C 8,8 C
_ Min-Zeit 04:55 05:10 17:25 23:40 - 00:00 - - - - 13:10 04:55
Minimum _ 1,6 C 2,6 C 32 % 1007 hPa - 0,0 m/s (0 Bft) - - - - -0,5 C 1,6 C
_ Max-Zeit 19:45 17:15 04:30 00:00 00:00 10:05 - - 06:30 12:20 06:50 19:45
Maximum _ 17,9 C 24,3 C 94 % 1012 hPa 0,0 l/m 7,4 m/s
NW (4 Bft)
- - 5,00 min 106 klux 4,9 C 17,9 C
Durchschnitt _ 10,4 C 11,8 C 60 % 1011 hPa #0,0 l/m 2,0 m/s (2 Bft) W - #7:55 h 28,3 klux 2,1 C 8,6 C